Página principal
METAR-TAF:

METAR-TAF

Aeroportos :

Dallas / Addison, Texas, Estados Unidos

latitude: 32-58N, longitude: 096-50W, altura: 196 m

Observação actual do tempo

O boletim foi feito há 1 hora e 5 minutos, às 18:47 UTC
Vento 12 kt de nor-noroeste com rajadas de 16 kt
Temperatura 19°C
Humidade 52%
Pressão 1023 hPa
Visibilidade: 16.1 km
Céu limpo

METAR: KADS 251847Z 34012G16KT 10SM SKC 19/09 A3022

Hora: 14:52 (19:52 UTC)


TAF: em falta

Observações e previsões do tempo de mais de 4000 aeroportos (mensagens METAR e TAF).

As estações disponíveis são os pontos amarelos e vermelhos sobre o mapa.

Mova o rato sobre o mapa para ver o nome da estação.

Depois clique no ponto para visualizar as observações e previsões meteorológicas.

Para alterar o mapa : clique nos botões verdes com uma cruz preta para aumentar o zoom; no botão verde com uma pitada de zoom; ou nas setas verdes para mapas adjacentes.


METAR-TAF: